sat.trackr.live / text

‹ back to catalog

STARLINK-11147 [DTC]

NORAD 60301 · 2024-133A

PAYLOAD ACTIVE UNKNOWN

§ Identity

Operator
Country
US
Launch date
2024-07-28
Launch site
AFWTR
Launch vehicle
Mass (kg)
RCS (m²)

Purposes: comms

External: N2YO · Heavens-Above · Gunter

§ Orbital elements

Epoch: 2026-05-25T02:36:38.522880Z

Period
91.74 min
Inclination
53.1602°
Eccentricity
0.0001116
Mean motion
15.69696024 rev/d
Perigee alt
359.0 km
Apogee alt
360.5 km
Semi-major
6,737.9 km
B*
-1.2624e-6
RAAN
129.7211°
Arg perigee
99.2708°
Mean anomaly
260.8436°
Rev number
10,573

§ Raw data

STARLINK-11147 [DTC]1 60301U 24133A   26145.10877920 -.00000741  00000+0 -12624-5 0  99982 60301  53.1602 129.7211 0001116  99.2708 260.8436 15.69696024105739

JSON: /api/v1/satellites/60301 · /tle

For live sub-satellite position, see the globe view (requires WebGL).

§ Visibility from observer

Set your observer location to see the next 7 days of passes ≥ 10°. The values pass through the URL so the page stays shareable.

No JS? Fill the form by hand. The geolocation button needs JavaScript.